UAL1224 KLAX-KTPA

Flight info

Callsign UAL1224
Flight time N/A
Altitude 37000
Route DOTSS2 CNERY BLH ANGRY CNM SJT KH06C RIICE KH90G LLA LEV Y280 CHRGE RAYZZ3
Aircraft B739/M-SDE2E3FGHIRWXY/LB1

Departure

Time N/A
Airport Los Angeles International Airport (KLAX)

Arrival

Time 2026-05-04 00:07
Airport Tampa International Airport (KTPA)
Time Latitude Longitude Altitude Speed Heading
2026-05-03 22:40 29.94798 -93.74214 37181 ft 535 kts 98°
2026-05-03 22:41 29.93959 -93.70029 37176 ft 535 kts 98°
2026-05-03 22:41 29.92262 -93.61681 37175 ft 535 kts 98°
2026-05-03 22:42 29.90334 -93.52263 37172 ft 535 kts 98°
2026-05-03 22:42 29.88624 -93.43922 37179 ft 535 kts 98°
2026-05-03 22:43 29.86918 -93.35618 37176 ft 535 kts 98°
2026-05-03 22:43 29.85196 -93.27264 37178 ft 535 kts 99°
2026-05-03 22:44 29.83469 -93.18913 37178 ft 536 kts 99°
2026-05-03 22:44 29.81743 -93.10598 37182 ft 536 kts 99°
2026-05-03 22:45 29.78421 -92.94676 37159 ft 536 kts 99°
2026-05-03 22:46 29.76674 -92.86342 37161 ft 536 kts 99°
2026-05-03 22:46 29.74922 -92.78013 37174 ft 535 kts 99°
2026-05-03 22:47 29.73178 -92.69747 37171 ft 535 kts 99°
2026-05-03 22:47 29.71417 -92.61425 37173 ft 536 kts 100°
2026-05-03 22:48 29.69650 -92.53105 37173 ft 535 kts 100°
2026-05-03 22:48 29.67879 -92.44792 37160 ft 535 kts 100°
2026-05-03 22:49 29.66117 -92.36543 37160 ft 534 kts 100°
2026-05-03 22:49 29.64389 -92.28246 37176 ft 533 kts 100°
2026-05-03 22:50 29.62688 -92.19953 37148 ft 533 kts 100°
2026-05-03 22:50 29.60982 -92.11674 37151 ft 532 kts 100°
2026-05-03 22:51 29.59266 -92.03416 37149 ft 531 kts 100°
2026-05-03 22:51 29.57549 -91.95193 37135 ft 527 kts 100°
2026-05-03 22:52 29.55859 -91.87129 37171 ft 518 kts 101°
2026-05-03 22:52 29.54180 -91.79138 37157 ft 511 kts 101°
2026-05-03 22:53 29.52510 -91.71206 37115 ft 514 kts 101°
2026-05-03 22:53 29.50818 -91.63178 37175 ft 521 kts 101°
2026-05-03 22:54 29.49094 -91.55049 37171 ft 525 kts 101°
2026-05-03 22:54 29.47360 -91.46900 37168 ft 526 kts 102°
2026-05-03 22:55 29.45649 -91.38894 37149 ft 516 kts 102°
2026-05-03 22:55 29.43936 -91.30890 37171 ft 519 kts 102°
2026-05-03 22:56 29.42205 -91.22823 37170 ft 522 kts 102°
2026-05-03 22:56 29.40459 -91.14715 37156 ft 525 kts 102°
2026-05-03 22:57 29.38712 -91.06636 37146 ft 517 kts 103°
2026-05-03 22:57 29.37001 -90.98746 37144 ft 512 kts 103°
2026-05-03 22:58 29.35282 -90.90836 37148 ft 511 kts 103°
2026-05-03 22:58 29.33562 -90.82946 37148 ft 510 kts 103°
2026-05-03 22:59 29.31836 -90.75052 37159 ft 511 kts 103°
2026-05-03 22:59 29.30113 -90.67201 37151 ft 512 kts 104°
2026-05-03 23:00 29.28370 -90.59280 37149 ft 513 kts 104°
2026-05-03 23:00 29.26617 -90.51340 37158 ft 515 kts 104°
2026-05-03 23:01 29.24857 -90.43389 37158 ft 516 kts 104°
2026-05-03 23:01 29.23090 -90.35429 37173 ft 516 kts 105°
2026-05-03 23:02 29.21313 -90.27448 37155 ft 518 kts 105°
2026-05-03 23:02 29.19538 -90.19503 37156 ft 519 kts 105°
2026-05-03 23:03 29.17744 -90.11489 37156 ft 521 kts 105°
2026-05-03 23:03 29.16024 -90.03433 37147 ft 522 kts 103°
2026-05-03 23:04 29.14406 -89.95344 37157 ft 522 kts 104°
2026-05-03 23:04 29.12784 -89.87255 37148 ft 522 kts 104°
2026-05-03 23:05 29.11150 -89.79238 37146 ft 521 kts 104°
2026-05-03 23:05 29.09495 -89.71187 37148 ft 520 kts 104°
2026-05-03 23:06 29.07838 -89.63155 37148 ft 518 kts 104°
2026-05-03 23:06 29.06182 -89.55145 37147 ft 517 kts 104°
2026-05-03 23:07 29.04525 -89.47154 37149 ft 516 kts 104°
2026-05-03 23:07 29.02865 -89.39175 37151 ft 516 kts 104°
2026-05-03 23:08 29.01214 -89.31263 37149 ft 515 kts 104°
2026-05-03 23:08 28.99548 -89.23302 37180 ft 515 kts 105°
2026-05-03 23:09 28.97876 -89.15340 37154 ft 516 kts 105°
2026-05-03 23:09 28.96197 -89.07371 37149 ft 516 kts 105°
2026-05-03 23:10 28.94511 -88.99393 37104 ft 517 kts 105°
2026-05-03 23:10 28.92832 -88.91472 37147 ft 518 kts 105°
2026-05-03 23:11 28.91130 -88.83464 37150 ft 520 kts 106°
2026-05-03 23:11 28.89415 -88.75420 37157 ft 523 kts 106°
2026-05-03 23:12 28.87611 -88.67370 37148 ft 524 kts 109°
2026-05-03 23:12 28.85426 -88.59425 37150 ft 525 kts 111°
2026-05-03 23:13 28.83169 -88.51544 37145 ft 527 kts 111°
2026-05-03 23:13 28.80933 -88.43580 37155 ft 527 kts 111°
2026-05-03 23:14 28.78723 -88.35614 37142 ft 527 kts 111°
2026-05-03 23:14 28.76517 -88.27671 37140 ft 524 kts 111°
2026-05-03 23:15 28.74311 -88.19769 37134 ft 522 kts 111°
2026-05-03 23:15 28.72126 -88.11959 37135 ft 520 kts 111°
2026-05-03 23:16 28.69927 -88.04132 37136 ft 518 kts 112°
2026-05-03 23:16 28.67727 -87.96337 37141 ft 516 kts 112°
2026-05-03 23:17 28.65528 -87.88563 37142 ft 516 kts 112°
2026-05-03 23:17 28.63322 -87.80783 37102 ft 519 kts 112°
2026-05-03 23:18 28.61097 -87.72962 37139 ft 527 kts 112°
2026-05-03 23:18 28.58835 -87.65014 37142 ft 528 kts 113°
2026-05-03 23:19 28.56568 -87.57065 37131 ft 529 kts 113°
2026-05-03 23:19 28.54293 -87.49111 37131 ft 528 kts 113°
2026-05-03 23:20 28.52019 -87.41179 37128 ft 527 kts 113°
2026-05-03 23:20 28.49759 -87.33321 37128 ft 526 kts 113°
2026-05-03 23:21 28.47486 -87.25437 37128 ft 524 kts 114°
2026-05-03 23:21 28.45213 -87.17571 37128 ft 523 kts 114°
2026-05-03 23:22 28.41808 -87.05820 37127 ft 521 kts 114°
2026-05-03 23:22 28.39536 -86.98005 37128 ft 520 kts 114°
2026-05-03 23:23 28.37280 -86.90259 37115 ft 520 kts 115°
2026-05-03 23:23 28.35005 -86.82470 37126 ft 520 kts 115°
2026-05-03 23:24 28.32726 -86.74683 37070 ft 520 kts 115°
2026-05-03 23:24 28.30444 -86.66898 37127 ft 520 kts 115°
2026-05-03 23:25 28.28164 -86.59101 37131 ft 521 kts 115°
2026-05-03 23:25 28.25893 -86.51338 37130 ft 523 kts 116°
2026-05-03 23:26 28.23593 -86.43499 37123 ft 524 kts 116°
2026-05-03 23:26 28.21282 -86.35643 37120 ft 526 kts 116°
2026-05-03 23:27 28.18964 -86.27781 37120 ft 526 kts 116°
2026-05-03 23:27 28.16639 -86.19913 37110 ft 526 kts 116°
2026-05-03 23:28 28.14310 -86.12047 37107 ft 526 kts 116°
2026-05-03 23:28 28.11996 -86.04253 37118 ft 525 kts 116°
2026-05-03 23:29 28.09664 -85.96420 37109 ft 524 kts 116°
2026-05-03 23:29 28.07336 -85.88614 37116 ft 523 kts 116°
2026-05-03 23:30 28.05007 -85.80826 37105 ft 522 kts 116°
2026-05-03 23:30 28.02677 -85.73054 37103 ft 521 kts 116°
2026-05-03 23:31 28.00363 -85.65351 37116 ft 520 kts 117°
2026-05-03 23:31 27.98033 -85.57612 37091 ft 519 kts 117°
2026-05-03 23:32 27.95702 -85.49891 37100 ft 519 kts 117°
2026-05-03 23:32 27.93362 -85.42156 37111 ft 520 kts 117°
2026-05-03 23:33 27.91011 -85.34398 37111 ft 523 kts 117°
2026-05-03 23:33 27.88667 -85.26662 37109 ft 525 kts 116°
2026-05-03 23:34 27.86992 -85.18514 37115 ft 537 kts 107°
2026-05-03 23:34 27.85718 -85.10175 37104 ft 539 kts 106°
2026-05-03 23:35 27.84377 -85.01841 37093 ft 539 kts 108°
2026-05-03 23:35 27.82961 -84.93519 37043 ft 541 kts 108°
2026-05-03 23:36 27.82249 -84.89376 36473 ft 548 kts 108°
2026-05-03 23:36 27.81527 -84.85146 35868 ft 548 kts 107°
2026-05-03 23:36 27.81074 -84.80845 35167 ft 557 kts 94°
2026-05-03 23:36 27.81184 -84.76470 34538 ft 558 kts 90°
2026-05-03 23:37 27.81459 -84.72082 33736 ft 561 kts 88°
2026-05-03 23:37 27.81785 -84.67699 32950 ft 560 kts 87°
2026-05-03 23:37 27.82098 -84.63310 32149 ft 559 kts 88°
2026-05-03 23:37 27.82373 -84.58928 31382 ft 558 kts 88°
2026-05-03 23:38 27.82610 -84.54555 30595 ft 557 kts 88°
2026-05-03 23:38 27.82818 -84.50245 29676 ft 556 kts 88°
2026-05-03 23:38 27.83014 -84.45931 28954 ft 544 kts 88°
2026-05-03 23:38 27.83203 -84.41688 28347 ft 537 kts 88°
2026-05-03 23:39 27.83389 -84.37502 27731 ft 531 kts 88°
2026-05-03 23:39 27.83576 -84.33361 27128 ft 525 kts 88°
2026-05-03 23:39 27.83761 -84.29267 26541 ft 518 kts 88°
2026-05-03 23:39 27.83943 -84.25267 25944 ft 503 kts 88°
2026-05-03 23:40 27.84120 -84.21373 25384 ft 489 kts 88°
2026-05-03 23:40 27.84289 -84.17638 24851 ft 477 kts 88°
2026-05-03 23:40 27.84454 -84.13941 24321 ft 465 kts 88°
2026-05-03 23:40 27.84614 -84.10328 23788 ft 455 kts 88°
2026-05-03 23:41 27.84769 -84.06789 23187 ft 446 kts 89°
2026-05-03 23:41 27.84920 -84.03327 22630 ft 436 kts 89°
2026-05-03 23:41 27.85068 -83.99941 22109 ft 427 kts 89°
2026-05-03 23:41 27.85211 -83.96624 21610 ft 418 kts 89°
2026-05-03 23:42 27.85351 -83.93380 21126 ft 409 kts 89°
2026-05-03 23:42 27.85496 -83.90200 20648 ft 402 kts 88°
2026-05-03 23:42 27.85718 -83.87077 20187 ft 396 kts 86°
2026-05-03 23:42 27.85977 -83.84050 19736 ft 389 kts 86°
2026-05-03 23:43 27.86309 -83.81035 19275 ft 384 kts 77°
2026-05-03 23:43 27.87312 -83.78276 18821 ft 377 kts 54°
2026-05-03 23:43 27.89046 -83.76142 18399 ft 363 kts 30°
2026-05-03 23:43 27.91195 -83.74802 18054 ft 345 kts 17°
2026-05-03 23:44 27.93384 -83.73760 17857 ft 340 kts 15°
2026-05-03 23:44 27.95621 -83.72764 17702 ft 354 kts 15°
2026-05-03 23:44 27.97965 -83.71749 17513 ft 364 kts 15°
2026-05-03 23:44 28.00302 -83.70746 17282 ft 364 kts 16°
2026-05-03 23:45 28.02508 -83.69300 16989 ft 372 kts 38°
2026-05-03 23:45 28.04145 -83.67052 16745 ft 372 kts 61°
2026-05-03 23:45 28.04982 -83.64316 16489 ft 366 kts 84°
2026-05-03 23:45 28.04959 -83.61484 16259 ft 357 kts 102°
2026-05-03 23:46 28.04458 -83.58763 16019 ft 351 kts 109°
2026-05-03 23:46 28.03732 -83.56137 15729 ft 350 kts 114°
2026-05-03 23:46 28.02899 -83.53535 15300 ft 353 kts 115°
2026-05-03 23:46 28.02043 -83.50930 14858 ft 353 kts 115°
2026-05-03 23:47 28.01195 -83.48320 14413 ft 353 kts 114°
2026-05-03 23:47 28.00377 -83.45759 13930 ft 349 kts 114°
2026-05-03 23:47 27.99570 -83.43195 13412 ft 343 kts 113°
2026-05-03 23:47 27.98783 -83.40672 12934 ft 336 kts 112°
2026-05-03 23:48 27.98014 -83.38196 12445 ft 331 kts 112°
2026-05-03 23:48 27.97257 -83.35760 11973 ft 326 kts 112°
2026-05-03 23:48 27.96512 -83.33360 11514 ft 321 kts 112°
2026-05-03 23:48 27.95779 -83.30999 11099 ft 315 kts 112°
2026-05-03 23:49 27.95057 -83.28678 10708 ft 310 kts 111°
2026-05-03 23:49 27.94356 -83.26420 10590 ft 302 kts 111°
2026-05-03 23:49 27.93669 -83.24212 10448 ft 302 kts 111°
2026-05-03 23:49 27.92968 -83.21965 10326 ft 304 kts 111°
2026-05-03 23:50 27.92260 -83.19697 10199 ft 307 kts 111°
2026-05-03 23:50 27.91841 -83.18132 10103 ft 309 kts 101°
2026-05-03 23:50 27.92167 -83.15000 10034 ft 303 kts 67°
2026-05-03 23:50 27.93038 -83.12817 9720 ft 306 kts 61°
2026-05-03 23:51 27.93674 -83.11413 9605 ft 301 kts 60°
2026-05-03 23:51 27.94644 -83.09324 9429 ft 300 kts 60°
2026-05-03 23:51 27.95610 -83.07237 9256 ft 298 kts 60°
2026-05-03 23:51 27.96560 -83.05159 9072 ft 296 kts 60°
2026-05-03 23:52 27.97792 -83.02430 8849 ft 293 kts 61°
2026-05-03 23:52 27.98708 -83.00384 8679 ft 290 kts 61°
2026-05-03 23:52 27.99613 -82.98354 8523 ft 288 kts 61°
2026-05-03 23:52 28.00220 -82.96990 8409 ft 286 kts 61°
2026-05-03 23:53 28.01099 -82.95012 8261 ft 284 kts 62°
2026-05-03 23:53 28.01984 -82.93018 8104 ft 283 kts 62°
2026-05-03 23:53 28.02862 -82.91037 7946 ft 281 kts 62°
2026-05-03 23:53 28.03736 -82.89064 7795 ft 279 kts 62°
2026-05-03 23:54 28.04605 -82.87103 7636 ft 278 kts 61°
2026-05-03 23:54 28.05468 -82.85149 7482 ft 277 kts 63°
2026-05-03 23:54 28.05936 -82.83052 7299 ft 279 kts 91°
2026-05-03 23:54 28.05612 -82.80908 7193 ft 276 kts 104°
2026-05-03 23:55 28.05090 -82.78829 7045 ft 273 kts 105°
2026-05-03 23:55 28.04563 -82.76810 6907 ft 270 kts 106°
2026-05-03 23:55 28.04040 -82.74793 6756 ft 265 kts 106°
2026-05-03 23:55 28.03533 -82.72805 6612 ft 262 kts 105°
2026-05-03 23:56 28.03037 -82.70830 6474 ft 260 kts 105°
2026-05-03 23:56 28.02548 -82.68871 6320 ft 257 kts 104°
2026-05-03 23:56 28.02066 -82.66937 6177 ft 253 kts 105°
2026-05-03 23:56 28.01591 -82.65030 6029 ft 251 kts 105°
2026-05-03 23:57 28.00990 -82.63196 5869 ft 247 kts 123°
2026-05-03 23:57 27.99744 -82.61974 5739 ft 240 kts 156°
2026-05-03 23:57 27.98149 -82.61544 5627 ft 235 kts 178°
2026-05-03 23:57 27.96522 -82.61596 5510 ft 233 kts 182°
2026-05-03 23:58 27.94901 -82.61683 5381 ft 234 kts 182°
2026-05-03 23:58 27.93274 -82.61762 5266 ft 234 kts 182°
2026-05-03 23:58 27.91636 -82.61834 5121 ft 237 kts 182°
2026-05-03 23:58 27.89993 -82.61904 4976 ft 236 kts 181°
2026-05-03 23:59 27.88349 -82.61971 4829 ft 235 kts 181°
2026-05-03 23:59 27.86731 -82.62036 4670 ft 230 kts 181°
2026-05-03 23:59 27.85139 -82.62099 4444 ft 227 kts 181°
2026-05-03 23:59 27.83577 -82.62161 4221 ft 223 kts 181°
2026-05-04 00:00 27.82072 -82.62220 4060 ft 215 kts 181°
2026-05-04 00:00 27.80601 -82.62284 3802 ft 209 kts 181°
2026-05-04 00:00 27.79169 -82.62385 3542 ft 203 kts 182°
2026-05-04 00:00 27.77766 -82.62496 3310 ft 201 kts 181°
2026-05-04 00:01 27.76419 -82.62241 3058 ft 196 kts 147°
2026-05-04 00:01 27.75543 -82.61162 2846 ft 185 kts 107°
2026-05-04 00:01 27.75444 -82.59771 2700 ft 181 kts 76°
2026-05-04 00:01 27.76009 -82.58504 2653 ft 181 kts 56°
2026-05-04 00:02 27.76752 -82.57336 2598 ft 186 kts 54°
2026-05-04 00:02 27.77499 -82.56187 2578 ft 181 kts 54°
2026-05-04 00:02 27.78308 -82.55152 2556 ft 173 kts 32°
2026-05-04 00:02 27.79461 -82.54882 2624 ft 173 kts
2026-05-04 00:03 27.80676 -82.54801 2602 ft 174 kts
2026-05-04 00:03 27.81879 -82.54737 2573 ft 171 kts
2026-05-04 00:03 27.83051 -82.54691 2516 ft 169 kts
2026-05-04 00:03 27.84235 -82.54649 2329 ft 170 kts
2026-05-04 00:04 27.85384 -82.54610 2093 ft 161 kts
2026-05-04 00:04 27.86474 -82.54573 1915 ft 156 kts
2026-05-04 00:04 27.87525 -82.54538 1745 ft 147 kts
2026-05-04 00:04 27.88522 -82.54504 1511 ft 141 kts
2026-05-04 00:05 27.89518 -82.54468 1321 ft 146 kts
2026-05-04 00:05 27.90538 -82.54433 1130 ft 147 kts
2026-05-04 00:05 27.91550 -82.54399 972 ft 145 kts
2026-05-04 00:05 27.92571 -82.54364 770 ft 148 kts
2026-05-04 00:06 27.93589 -82.54329 588 ft 146 kts
2026-05-04 00:06 27.94618 -82.54295 381 ft 148 kts
2026-05-04 00:06 27.95631 -82.54258 206 ft 149 kts
2026-05-04 00:06 27.96659 -82.54224 51 ft 142 kts
2026-05-04 00:07 27.97474 -82.54195 48 ft 66 kts
2026-05-04 00:07 27.97737 -82.54185 45 ft 30 kts
2026-05-04 00:07 27.97887 -82.54149 46 ft 16 kts 24°
2026-05-04 00:07 27.97915 -82.54083 46 ft 11 kts 118°
2026-05-04 00:08 27.97858 -82.54060 46 ft 8 kts 182°
2026-05-04 00:08 27.97800 -82.54062 46 ft 8 kts 182°
2026-05-04 00:08 27.97744 -82.54064 46 ft 8 kts 181°
2026-05-04 00:08 27.97691 -82.54066 46 ft 8 kts 181°
2026-05-04 00:09 27.97638 -82.54068 46 ft 7 kts 182°
2026-05-04 00:09 27.97585 -82.54069 46 ft 8 kts 181°
2026-05-04 00:09 27.97531 -82.54048 46 ft 9 kts 123°
2026-05-04 00:09 27.97520 -82.53970 45 ft 11 kts 96°
2026-05-04 00:10 27.97489 -82.53878 43 ft 14 kts 123°
2026-05-04 00:10 27.97436 -82.53789 47 ft 13 kts 123°
2026-05-04 00:10 27.97386 -82.53704 52 ft 13 kts 123°
2026-05-04 00:10 27.97346 -82.53614 52 ft 13 kts 112°
2026-05-04 00:11 27.97319 -82.53500 45 ft 18 kts 99°
2026-05-04 00:11 27.97314 -82.53369 43 ft 15 kts 92°
2026-05-04 00:11 27.97311 -82.53248 42 ft 15 kts 92°
2026-05-04 00:11 27.97307 -82.53131 42 ft 15 kts 92°
2026-05-04 00:12 27.97376 -82.53075 42 ft 14 kts
2026-05-04 00:12 27.97444 -82.53073 42 ft 8 kts
2026-05-04 00:12 27.97498 -82.53080 42 ft 7 kts 323°
2026-05-04 00:12 27.97511 -82.53124 42 ft 1 kts 290°
2026-05-04 00:13 27.97514 -82.53130 42 ft 1 kts 295°
2026-05-04 00:13 27.97518 -82.53138 42 ft 2 kts 301°
2026-05-04 00:13 27.97527 -82.53154 42 ft 2 kts 301°
2026-05-04 00:13 27.97529 -82.53159 42 ft 0 kts 301°